This is the latest recevied weather packets stored in our database for station/object NC4M. If no packets are shown the sender has not sent any weather packets the latest 10 day(s).
| Time | Temp. | Humidity | Pressure | Rain* | Wind** | Luminosity | Snow |
|---|---|---|---|---|---|---|---|
| 1787763929 | 30.56° C | 66% | 1017.4 hPa | 0 mm | - | 791 W/m² | - |
| 1787763624 | 30.56° C | 63% | 1017.6 hPa | 0 mm | - | 795 W/m² | - |
| 1787763320 | 30.56° C | 66% | 1017.6 hPa | 0 mm | - | 782 W/m² | - |
| 1787763019 | 30.56° C | 66% | 1017.4 hPa | 0 mm | - | 729 W/m² | - |
| 1787762719 | 30.56° C | 65% | 1017.5 hPa | 0 mm | - | 770 W/m² | - |
| 1787762419 | 30° C | 68% | 1017.4 hPa | 0 mm | - | 767 W/m² | - |
| 1787762116 | 30° C | 65% | 1017.4 hPa | 0 mm | - | 749 W/m² | - |
| 1787761811 | 30° C | 65% | 1017.4 hPa | 0 mm | - | 711 W/m² | - |
| 1787761507 | 30° C | 64% | 1017.3 hPa | 0 mm | - | 737 W/m² | - |
| 1787761201 | 29.44° C | 69% | 1017.3 hPa | 0 mm | - | 742 W/m² | - |
| 1787760901 | 28.89° C | 67% | 1017.5 hPa | 0 mm | - | 709 W/m² | - |
| 1787760599 | 28.89° C | 68% | 1017.4 hPa | 0 mm | - | 661 W/m² | - |
| 1787760298 | 28.89° C | 67% | 1017.1 hPa | 0 mm | - | 671 W/m² | - |
| 1787759996 | 28.89° C | 70% | 1017.3 hPa | 0 mm | - | 643 W/m² | - |
| 1787759696 | 28.33° C | 71% | 1017.1 hPa | 0 mm | - | 665 W/m² | - |
| 1787759392 | 28.33° C | 72% | 1017.4 hPa | 0 mm | - | 216 W/m² | - |
| 1787759087 | 28.33° C | 69% | 1017.1 hPa | 0 mm | - | 92 W/m² | - |
| 1787758786 | 27.78° C | 68% | 1017.4 hPa | 0 mm | - | 89 W/m² | - |
| 1787758482 | 28.33° C | 70% | 1017.1 hPa | 0 mm | - | 93 W/m² | - |
| 1787758181 | 27.78° C | 71% | 1017.3 hPa | 0 mm | - | 84 W/m² | - |
| 1787757877 | 27.78° C | 70% | 1017.1 hPa | 0 mm | - | 104 W/m² | - |
| 1787757572 | 27.78° C | 70% | 1017.1 hPa | 0 mm | - | 87 W/m² | - |
| 1787757272 | 27.78° C | 72% | 1017.4 hPa | 0 mm | - | 87 W/m² | - |
| 1787756970 | 27.22° C | 71% | 1017.1 hPa | 0 mm | - | 89 W/m² | - |
| 1787756666 | 27.22° C | 72% | 1017.1 hPa | 0 mm | - | 96 W/m² | - |
* Rain latest hour (hover to see other rain measurements)
** Current wind speed in m/s (hover to see current wind gust speed)